ANZ155M NZAA-NZRO

Flight info

Callsign ANZ155M
Flight time 0h 28m
Altitude 12000
Route TULMI H372 ESKER
Aircraft AT76/M-SDFGIRY/S

Departure

Time 2026-04-16 07:03
Airport Auckland International Airport (NZAA)

Arrival

Time 2026-04-16 07:31
Airport Rotorua Regional Airport (NZRO)
Time Latitude Longitude Altitude Speed Heading
2026-04-16 06:46 -37.00643 174.79392 22 ft 0 kts
2026-04-16 06:58 -37.00639 174.79394 22 ft 4 kts 16°
2026-04-16 06:59 -37.00663 174.79440 22 ft 13 kts 134°
2026-04-16 06:59 -37.00669 174.79547 23 ft 18 kts 71°
2026-04-16 06:59 -37.00664 174.79687 26 ft 16 kts 140°
2026-04-16 06:59 -37.00695 174.79774 22 ft 15 kts 71°
2026-04-16 07:00 -37.00649 174.79939 26 ft 19 kts 70°
2026-04-16 07:00 -37.00690 174.80063 23 ft 16 kts 128°
2026-04-16 07:00 -37.00708 174.80090 22 ft 0 kts 135°
2026-04-16 07:01 -37.00728 174.80114 23 ft 10 kts 134°
2026-04-16 07:01 -37.00793 174.80115 23 ft 13 kts 249°
2026-04-16 07:01 -37.00801 174.80084 22 ft 0 kts 250°
2026-04-16 07:02 -37.00861 174.79867 22 ft 58 kts 251°
2026-04-16 07:02 -37.01064 174.79138 24 ft 116 kts 249°
2026-04-16 07:02 -37.01386 174.78129 409 ft 127 kts 243°
2026-04-16 07:03 -37.01683 174.77086 1008 ft 133 kts 249°
2026-04-16 07:03 -37.02010 174.75895 1288 ft 159 kts 249°
2026-04-16 07:03 -37.02374 174.74559 1866 ft 163 kts 250°
2026-04-16 07:03 -37.02731 174.73228 2591 ft 160 kts 249°
2026-04-16 07:04 -37.03294 174.72089 3316 ft 156 kts 214°
2026-04-16 07:04 -37.04386 174.71845 3897 ft 167 kts 186°
2026-04-16 07:04 -37.05533 174.71848 4054 ft 168 kts 188°
2026-04-16 07:04 -37.06702 174.71864 4585 ft 168 kts 186°
2026-04-16 07:05 -37.07877 174.71888 5071 ft 170 kts 187°
2026-04-16 07:05 -37.09067 174.71906 5445 ft 172 kts 188°
2026-04-16 07:05 -37.10271 174.71934 5799 ft 173 kts 187°
2026-04-16 07:05 -37.11473 174.71956 6177 ft 172 kts 188°
2026-04-16 07:06 -37.12663 174.71965 6526 ft 174 kts 188°
2026-04-16 07:06 -37.13877 174.71967 6897 ft 175 kts 189°
2026-04-16 07:06 -37.15101 174.71967 7244 ft 176 kts 189°
2026-04-16 07:06 -37.16328 174.71964 7591 ft 177 kts 189°
2026-04-16 07:07 -37.17569 174.71967 7924 ft 178 kts 189°
2026-04-16 07:07 -37.18821 174.71968 8227 ft 181 kts 189°
2026-04-16 07:07 -37.20081 174.71996 8505 ft 186 kts 180°
2026-04-16 07:07 -37.21256 174.72838 8780 ft 206 kts 144°
2026-04-16 07:08 -37.22247 174.74180 9085 ft 213 kts 139°
2026-04-16 07:08 -37.23200 174.75616 9429 ft 214 kts 137°
2026-04-16 07:08 -37.24148 174.77071 9742 ft 217 kts 138°
2026-04-16 07:08 -37.25107 174.78528 10019 ft 217 kts 139°
2026-04-16 07:09 -37.26102 174.79964 10268 ft 218 kts 140°
2026-04-16 07:09 -37.27121 174.81391 10549 ft 220 kts 141°
2026-04-16 07:09 -37.28147 174.82828 10811 ft 222 kts 141°
2026-04-16 07:09 -37.29179 174.84276 11087 ft 223 kts 141°
2026-04-16 07:10 -37.30214 174.85739 11345 ft 225 kts 141°
2026-04-16 07:10 -37.31255 174.87219 11607 ft 227 kts 141°
2026-04-16 07:10 -37.32304 174.88708 11846 ft 230 kts 141°
2026-04-16 07:10 -37.33393 174.90238 11925 ft 240 kts 141°
2026-04-16 07:11 -37.34537 174.91827 11963 ft 250 kts 141°
2026-04-16 07:11 -37.35719 174.93488 11988 ft 259 kts 140°
2026-04-16 07:11 -37.36928 174.95215 11999 ft 267 kts 140°
2026-04-16 07:11 -37.38171 174.96994 12000 ft 273 kts 140°
2026-04-16 07:12 -37.39438 174.98802 11988 ft 277 kts 139°
2026-04-16 07:12 -37.40724 175.00623 11992 ft 280 kts 140°
2026-04-16 07:12 -37.41920 175.02590 11985 ft 291 kts 122°
2026-04-16 07:12 -37.42532 175.05038 11982 ft 298 kts 104°
2026-04-16 07:13 -37.42749 175.07643 11986 ft 301 kts 96°
2026-04-16 07:13 -37.42833 175.10279 11991 ft 302 kts 94°
2026-04-16 07:13 -37.42915 175.12924 11991 ft 303 kts 95°
2026-04-16 07:13 -37.43040 175.15573 11990 ft 304 kts 97°
2026-04-16 07:14 -37.43217 175.18225 11990 ft 304 kts 97°
2026-04-16 07:14 -37.43397 175.20876 11987 ft 304 kts 97°
2026-04-16 07:14 -37.43581 175.23530 11997 ft 305 kts 98°
2026-04-16 07:14 -37.43758 175.26153 11990 ft 306 kts 97°
2026-04-16 07:15 -37.43934 175.28822 11978 ft 306 kts 97°
2026-04-16 07:15 -37.44113 175.31492 11987 ft 306 kts 98°
2026-04-16 07:15 -37.44286 175.34164 11990 ft 307 kts 97°
2026-04-16 07:15 -37.44453 175.36847 11981 ft 308 kts 97°
2026-04-16 07:16 -37.44826 175.39447 11974 ft 298 kts 117°
2026-04-16 07:16 -37.45767 175.41731 11985 ft 293 kts 127°
2026-04-16 07:16 -37.46918 175.43816 11987 ft 288 kts 137°
2026-04-16 07:16 -37.48266 175.45658 11977 ft 285 kts 143°
2026-04-16 07:17 -37.49672 175.47423 11981 ft 286 kts 143°
2026-04-16 07:17 -37.51067 175.49201 11977 ft 286 kts 142°
2026-04-16 07:17 -37.52431 175.51025 11978 ft 286 kts 141°
2026-04-16 07:17 -37.53783 175.52866 11984 ft 287 kts 141°
2026-04-16 07:18 -37.55123 175.54716 11978 ft 287 kts 141°
2026-04-16 07:18 -37.56466 175.56578 11987 ft 288 kts 140°
2026-04-16 07:18 -37.57815 175.58436 11979 ft 287 kts 141°
2026-04-16 07:18 -37.59175 175.60288 11980 ft 288 kts 141°
2026-04-16 07:19 -37.60535 175.62138 11982 ft 288 kts 141°
2026-04-16 07:19 -37.61897 175.63996 11978 ft 288 kts 141°
2026-04-16 07:19 -37.63257 175.65849 11983 ft 288 kts 141°
2026-04-16 07:19 -37.64619 175.67707 11979 ft 288 kts 141°
2026-04-16 07:20 -37.65978 175.69563 11986 ft 287 kts 141°
2026-04-16 07:20 -37.67334 175.71412 11985 ft 288 kts 141°
2026-04-16 07:20 -37.68694 175.73267 11981 ft 288 kts 141°
2026-04-16 07:20 -37.70058 175.75132 11985 ft 289 kts 142°
2026-04-16 07:21 -37.71422 175.76998 11981 ft 289 kts 141°
2026-04-16 07:21 -37.72785 175.78864 11979 ft 289 kts 142°
2026-04-16 07:21 -37.74150 175.80731 11976 ft 289 kts 141°
2026-04-16 07:21 -37.75514 175.82601 11983 ft 289 kts 141°
2026-04-16 07:22 -37.76879 175.84472 11985 ft 290 kts 141°
2026-04-16 07:22 -37.78068 175.86564 11986 ft 298 kts 125°
2026-04-16 07:22 -37.78958 175.88912 11995 ft 302 kts 120°
2026-04-16 07:22 -37.79818 175.91398 11858 ft 308 kts 120°
2026-04-16 07:23 -37.80699 175.93884 11425 ft 320 kts 121°
2026-04-16 07:23 -37.81675 175.96438 10947 ft 323 kts 122°
2026-04-16 07:23 -37.82671 175.98971 10481 ft 320 kts 122°
2026-04-16 07:23 -37.83655 176.01476 10039 ft 317 kts 122°
2026-04-16 07:24 -37.84632 176.03964 9591 ft 314 kts 122°
2026-04-16 07:24 -37.85592 176.06424 9185 ft 310 kts 122°
2026-04-16 07:24 -37.86523 176.08855 8768 ft 304 kts 122°
2026-04-16 07:24 -37.87442 176.11244 8359 ft 300 kts 122°
2026-04-16 07:25 -37.88353 176.13604 7942 ft 297 kts 122°
2026-04-16 07:25 -37.89254 176.15948 7533 ft 294 kts 122°
2026-04-16 07:25 -37.90144 176.18270 7131 ft 292 kts 122°
2026-04-16 07:25 -37.91028 176.20569 6738 ft 289 kts 122°
2026-04-16 07:26 -37.91899 176.22843 6337 ft 285 kts 122°
2026-04-16 07:26 -37.92759 176.25094 5946 ft 283 kts 121°
2026-04-16 07:26 -37.93611 176.27334 5554 ft 281 kts 121°
2026-04-16 07:26 -37.94453 176.29560 5176 ft 279 kts 121°
2026-04-16 07:27 -37.95275 176.31768 4778 ft 276 kts 119°
2026-04-16 07:27 -37.96077 176.33939 4406 ft 267 kts 119°
2026-04-16 07:27 -37.96852 176.36046 4049 ft 260 kts 118°
2026-04-16 07:27 -37.97769 176.37945 3584 ft 247 kts 140°
2026-04-16 07:28 -37.99223 176.38872 3263 ft 227 kts 176°
2026-04-16 07:28 -38.00668 176.38554 3001 ft 195 kts 211°
2026-04-16 07:28 -38.01694 176.37678 2765 ft 165 kts 219°
2026-04-16 07:28 -38.02574 176.36889 2554 ft 146 kts 218°
2026-04-16 07:29 -38.03385 176.36208 2362 ft 135 kts 216°
2026-04-16 07:29 -38.04173 176.35611 2189 ft 130 kts 213°
2026-04-16 07:29 -38.04961 176.35070 2029 ft 135 kts 210°
2026-04-16 07:29 -38.05822 176.34520 1861 ft 137 kts 210°
2026-04-16 07:30 -38.06650 176.34008 1690 ft 127 kts 209°
2026-04-16 07:30 -38.07434 176.33570 1536 ft 119 kts 206°
2026-04-16 07:30 -38.08185 176.33141 1340 ft 118 kts 208°
2026-04-16 07:30 -38.08906 176.32712 1205 ft 112 kts 208°
2026-04-16 07:31 -38.09584 176.32308 1044 ft 105 kts 208°
2026-04-16 07:31 -38.10219 176.31930 949 ft 96 kts 207°
2026-04-16 07:31 -38.10636 176.31680 944 ft 40 kts 205°
2026-04-16 07:31 -38.10860 176.31549 945 ft 41 kts 205°
2026-04-16 07:32 -38.11013 176.31469 946 ft 11 kts 175°
2026-04-16 07:32 -38.11057 176.31539 945 ft 1 kts 114°
2026-04-16 07:32 -38.11030 176.31594 942 ft 12 kts 27°
2026-04-16 07:32 -38.10994 176.31638 944 ft 7 kts 100°
2026-04-16 07:33 -38.11013 176.31651 944 ft 1 kts 205°
2026-04-16 07:33 -38.11015 176.31650 944 ft 0 kts 205°